This is the latest recevied weather packets stored in our database for station/object KO4IDC-13. If no packets are shown the sender has not sent any weather packets the latest 10 day(s).
| Time | Temp. | Humidity | Pressure | Rain* | Wind** | Luminosity | Snow |
|---|---|---|---|---|---|---|---|
| 1777936969 | 25.56° C | 39% | 1008.5 hPa | 0 mm | - | 79 W/m² | - |
| 1777936666 | 25.56° C | 39% | 1008.6 hPa | 0 mm | - | 82 W/m² | - |
| 1777936362 | 26.11° C | 39% | 1008.8 hPa | 0 mm | - | 72 W/m² | - |
| 1777936058 | 26.11° C | 38% | 1008.8 hPa | 0 mm | - | 75 W/m² | - |
| 1777935757 | 26.67° C | 38% | 1009 hPa | 0 mm | - | 101 W/m² | - |
| 1777935455 | 26.11° C | 37% | 1009.4 hPa | 0 mm | - | 156 W/m² | - |
| 1777935151 | 26.11° C | 37% | 1009.4 hPa | 0 mm | - | 140 W/m² | - |
| 1777934849 | 26.11° C | 38% | 1009.6 hPa | 0 mm | - | 122 W/m² | - |
| 1777934546 | 26.11° C | 38% | 1009.6 hPa | 0 mm | - | 110 W/m² | - |
| 1777934242 | 26.11° C | 39% | 1009.7 hPa | 0 mm | - | 129 W/m² | - |
| 1777933937 | 26.11° C | 38% | 1009.6 hPa | 0 mm | - | 141 W/m² | - |
| 1777933635 | 26.11° C | 39% | 1009.8 hPa | 0 mm | - | 141 W/m² | - |
| 1777933332 | 26.11° C | 38% | 1010.1 hPa | 0 mm | - | 129 W/m² | - |
| 1777933029 | 26.11° C | 37% | 1010.3 hPa | 0 mm | - | 130 W/m² | - |
| 1777932726 | 26.11° C | 37% | 1010.1 hPa | 0 mm | - | 131 W/m² | - |
| 1777932422 | 26.11° C | 37% | 1010.3 hPa | 0 mm | - | 134 W/m² | - |
| 1777932120 | 26.11° C | 38% | 1010.3 hPa | 0 mm | - | 140 W/m² | - |
| 1777931816 | 26.11° C | 38% | 1010.2 hPa | 0 mm | - | 157 W/m² | - |
| 1777931514 | 26.11° C | 38% | 1010.3 hPa | 0 mm | - | 174 W/m² | - |
| 1777931209 | 26.67° C | 38% | 1010.2 hPa | 0 mm | - | 182 W/m² | - |
| 1777930906 | 26.67° C | 37% | 1010.1 hPa | 0 mm | - | 179 W/m² | - |
| 1777930602 | 26.67° C | 38% | 1010 hPa | 0 mm | - | 178 W/m² | - |
| 1777930299 | 26.67° C | 37% | 1010.1 hPa | 0 mm | - | 184 W/m² | - |
| 1777929996 | 26.67° C | 37% | 1010.1 hPa | 0 mm | - | 194 W/m² | - |
| 1777929692 | 26.67° C | 36% | 1010.2 hPa | 0 mm | - | 206 W/m² | - |
* Rain latest hour (hover to see other rain measurements)
** Current wind speed in m/s (hover to see current wind gust speed)